Regional Weather Roundup
Issued by NWS

Home | Current Version | Previous Version | Graphics & Text | Print | Product List | Glossary Off
Versions: 1 2 3 4 5 6 7 8 9 10 11 12 13 14 15 16 17 18 19 20 21 22 23 24 25 26 27 28 29 30 31 32 33 34 35 36 37 38 39 40 41 42 43 44 45 46 47 48 49 50

000
ASUS43 KFSD 290302
RWRSD

WEATHER ROUNDUP FOR SOUTH DAKOTA
NATIONAL WEATHER SERVICE SIOUX FALLS SD
900 PM CST SUN DEC 28 2014

NOTE: "FAIR" INDICATES FEW OR NO CLOUDS BELOW 12,000 FEET WITH NO
SIGNIFICANT WEATHER AND/OR OBSTRUCTIONS TO VISIBILITY.


SDZ001>005-009-010-012>017-290400-
NORTHWEST AND NORTH CENTRAL SOUTH DAKOTA

CITY           SKY/WX    TMP DP  RH WIND       PRES   REMARKS
BUFFALO          N/A     17  13  84 E16       30.08R WCI   2
FAITH            N/A     15  12  88 NE12      30.18R WCI   2
MOBRIDGE       CLOUDY     9   2  73 NE7       30.29R WCI  -2
$$

SDZ012>016-024>037-041>051-057-063-072>074-290400-
SOUTHWEST AND SOUTH CENTRAL SOUTH DAKOTA

CITY           SKY/WX    TMP DP  RH WIND       PRES   REMARKS
RAPID CTY ARPT LGT SNOW  17  13  84 N8        30.10R FOG     WCI   7
PIERRE         LGT SNOW  13   9  84 NE16      30.24R FOG     WCI  -3
CUSTER         LGT SNOW  15  11  83 NE8       29.93R FOG     WCI   4
ELLSWORTH AFB  FLURRIES  16  12  86 NE7       30.10  WCI   6
PHILIP         LGT SNOW  18  14  84 E15       30.18R FOG     WCI   4
PINE RIDGE     LGT SNOW  18  14  84 NE12      30.04R FOG     WCI   5
WINNER         LGT SNOW  18  14  84 E13       30.18R WCI   5
$$

SDZ004>011-016>023-039-040-290400-
NORTHEAST SOUTH DAKOTA

CITY           SKY/WX    TMP DP  RH WIND       PRES   REMARKS
ABERDEEN       CLOUDY     6  -2  69 NE14      30.35R WCI -11
WATERTOWN      CLOUDY     6   1  80 NE12      30.26R WCI  -9
SISSETON         N/A      3  -2  79 N15       30.37R WCI -16
$$

SDZ017-020-022-023-036>040-048>070-290400-
SOUTHEAST SOUTH DAKOTA

CITY           SKY/WX    TMP DP  RH WIND       PRES   REMARKS
SIOUX FALLS    CLOUDY    19  14  81 NE13      30.24R WCI   6
HURON          LGT SNOW  15  11  83 NE7       30.30R FOG     WCI   5
MITCHELL       LGT SNOW  20  18  92 NE8       30.28R FOG     WCI  10
YANKTON        CLOUDY    19  18  93 E9        30.24R WCI   9
$$

ABBREVIATIONS USED IN REMARKS
   TC - TEMPERATURE IN CELSIUS
  WCI - WIND CHILL INDEX
   HX - HEAT INDEX
  VSB - VISIBILITY



USA.gov is the U.S. government's official web portal to all federal, state and local government web resources and services.